Dewpoint
30 20 21 18 22 23 22 25 26 26 26 26 24 22 22 21 24 25 26 25 19 17 14 14 13 13 13 13 14 14 14 12 11 10 9 9 8 8 7 7 7 7 8 11 10 9 9 8 7 7 6 5 3 1 1 0 -2 -2 -2 0 -1 -1 -1 1 2 -0 -0 1 2 3 3 0 -3 -0 1 -3 -2 -3 -4 0 4 2 2 3 8 11
24 20 21 23 22 21 24 23 21 21 23 24 23 22 22 23 20 24 24 26 26 19 14 14 13 13 13 13 14 15 14 13 11 10 9 9 8 8 7 7 7 7 10 8 7 7 8 8 8 7 5 11 3 2 -0 -0 -1 -1 -1 -1 -1 -1 -0 -0 2 -0 -0 0 1 1 4 1 -2 -4 -2 -1 -2 -2 -4 -2 2 0 1 1 6 10
21 21 22 21 21 27 21 20 22 23 22 21 21 21 20 18 24 25 26 26 20 17 15 13 12 13 13 14 15 14 14 14 13 11 10 9 9 8 8 8 8 6 6 6 6 7 7 10 9 5 4 3 4 3 1 -1 -1 -0 -0 -1 1 0 1 1 3 1 -0 -1 0 0 3 3 -1 -5 -3 -2 1 -1 -3 -5 -2 -2 -1 -0 2 8
19 21 20 22 25 27 21 22 22 22 23 18 16 16 14 20 17 16 23 26 25 20 14 13 12 13 15 15 15 15 14 14 14 13 14 13 10 9 9 9 9 8 8 7 6 5 5 5 6 6 5 4 4 4 2 1 -1 -0 2 -1 0 2 -1 2 1 3 -1 1 -0 1 3 6 -0 -5 -2 -4 -1 -2 -4 -7 -7 -6 -3 -1 -0 7
20 21 21 22 22 23 22 22 21 20 17 21 20 19 17 19 20 20 21 24 20 19 16 14 13 13 14 14 14 15 16 15 15 13 12 12 13 12 12 11 10 9 9 8 7 7 6 6 6 6 7 6 4 3 2 2 1 -1 -0 0 -0 2 -1 1 -1 -2 -1 -0 -2 -3 -1 4 2 -5 -6 -8 -6 -4 -3 -6 -9 -8 -4 -3 -1 7
19 20 21 17 16 20 21 20 22 20 17 19 20 20 19 21 20 21 22 20 18 14 17 16 11 11 13 14 14 15 15 14 15 13 12 12 11 11 10 11 12 12 11 10 9 9 9 8 7 7 7 6 5 3 3 2 3 0 -0 0 -1 1 -1 -2 -2 -2 -4 -3 -5 -8 -5 -3 -3 -7 -8 -10 -9 -4 -8 -10 -11 -9 -7 -4 -5 -4
24 23 19 20 19 20 20 20 22 22 18 14 16 23 23 22 21 21 22 18 12 10 18 20 13 9 12 12 13 14 14 14 14 13 12 12 11 12 10 9 9 9 10 11 11 11 10 10 10 8 7 6 5 3 4 1 2 1 -2 -2 -1 -1 0 -3 -3 -1 -3 -3 -5 -8 -7 -4 -5 -8 -9 -9 -8 -5 -6 -5 -11 -9 -9 -6 -8 -9
26 20 18 18 16 18 17 16 19 22 16 13 20 24 21 21 19 20 21 19 18 22 21 20 18 12 11 12 14 14 13 13 13 13 13 12 11 11 10 11 11 11 11 12 12 12 12 12 11 9 8 6 5 6 4 3 1 0 -3 -4 -3 -1 -1 -2 -3 -1 -4 -4 -5 -8 -8 -5 -7 -8 -8 -9 -9 -8 -5 -10 -10 -10 -11 -12 -12 -13
22 18 19 18 17 16 15 17 20 24 17 17 21 23 22 22 22 21 18 17 19 15 14 18 21 17 15 13 14 14 13 13 13 13 13 12 12 12 12 12 11 12 13 14 15 14 14 13 12 11 10 7 7 9 4 3 -1 4 1 -1 -3 -3 -1 -3 -5 -3 -7 -4 -7 -10 -9 -11 -8 -6 -5 -7 -7 -9 -9 -12 -12 -12 -12 -13 -14 -13
20 21 19 20 18 15 19 18 19 21 17 21 23 24 23 24 23 21 18 16 14 11 7 12 20 13 13 13 12 13 12 13 13 13 13 13 13 13 13 12 12 13 15 15 16 16 16 14 13 12 11 9 10 7 7 5 -1 2 6 0 -3 -3 -2 -2 -5 -4 -6 -6 -7 -10 -10 -12 -12 -9 -9 -10 -11 -12 -13 -14 -14 -15 -16 -16 -15 -13
19 29 33 22 19 17 17 17 20 22 22 25 25 17 16 20 21 21 19 15 10 6 10 16 19 14 5 12 14 12 14 17 15 13 14 14 14 14 15 15 16 16 17 17 17 17 16 15 14 12 10 10 10 7 5 7 -0 3 4 5 -3 -4 -0 -3 -4 -5 -6 -6 -9 -11 -13 -13 -12 -10 -9 -11 -12 -13 -14 -14 -14 -15 -16 -16 -15 -13
26 26 21 19 28 21 19 18 20 25 24 21 18 14 13 8 13 14 12 13 4 2 9 15 13 16 4 10 15 17 17 16 16 13 14 14 15 17 18 18 18 18 18 18 17 16 16 16 15 13 11 9 9 6 5 6 4 7 3 3 -0 -3 -1 -4 -3 -6 -6 -8 -8 -10 -13 -14 -12 -10 -11 -11 -12 -13 -14 -13 -14 -15 -16 -15 -15 -14
18 18 20 25 28 20 19 14 11 19 19 18 12 12 7 -1 -0 -4 4 -1 -0 -4 7 11 12 8 12 12 15 16 17 17 17 18 15 15 16 17 18 18 19 18 18 18 18 17 16 15 15 13 11 9 8 7 4 5 4 4 -0 0 -0 -4 -2 -3 -5 -6 -8 -10 -10 -11 -13 -13 -10 -11 -11 -11 -12 -13 -13 -14 -15 -15 -15 -15 -15 -14
16 19 19 20 20 20 19 12 13 10 12 17 9 8 2 -1 -4 -7 -5 -2 -2 6 10 10 13 8 12 13 14 14 16 18 18 17 17 17 17 17 17 17 18 18 18 18 18 17 16 16 15 13 11 9 8 5 5 5 4 3 -4 1 1 -2 -2 -1 -5 -6 -10 -11 -10 -13 -13 -14 -13 -13 -8 -11 -12 -11 -12 -14 -14 -14 -14 -13 -15 -14
2 4 9 17 11 17 20 18 17 15 15 16 18 9 6 2 -0 -4 -2 -5 -5 4 9 11 5 1 9 8 14 15 17 17 18 17 17 17 17 17 17 17 18 17 18 18 18 17 17 16 14 12 11 9 8 6 5 2 3 -0 -7 -6 -1 -4 -3 -3 -5 -9 -11 -12 -13 -13 -14 -14 -13 -10 -9 -11 -8 -11 -13 -13 -12 -13 -13 -13 -13 -13
11 2 13 20 16 17 18 21 20 19 17 15 14 14 6 -1 10 3 -1 3 1 3 1 4 4 8 12 13 16 17 16 17 19 17 18 16 17 18 17 18 18 15 15 18 18 18 17 13 12 10 8 8 6 7 1 -0 -2 -7 -8 -3 -4 -6 -6 -9 -4 -12 -14 -14 -13 -13 -15 -15 -8 -6 -11 -10 -11 -13 -13 -13 -13 -14 -14 -13 -13 -14
14 9 17 20 22 15 16 20 18 14 -1 5 12 3 4 9 9 5 10 12 7 -1 -1 5 10 11 13 13 14 13 15 16 16 16 16 16 17 17 17 17 17 16 13 14 17 17 13 11 10 8 5 5 6 2 -3 -2 -2 -6 -7 -10 -11 -10 -11 -12 -6 -13 -14 -14 -14 -15 -15 -14 -14 -14 -14 -14 -14 -13 -13 -13 -14 -14 -14 -14 -14 -14
7 10 19 19 15 17 18 20 17 18 16 13 5 10 14 16 16 10 2 -5 -3 -3 -4 3 1 2 1 1 13 13 13 14 15 15 15 16 16 15 16 16 16 16 14 13 15 15 9 8 8 6 4 3 2 2 -1 0 -2 -9 -11 -11 -11 -11 -12 -13 -14 -14 -13 -15 -15 -15 -14 -14 -14 -14 -14 -14 -13 -13 -13 -15 -14 -15 -15 -15 -14 -13
17 7 12 15 16 20 23 21 16 16 19 9 9 15 8 -4 -1 6 -3 -6 -5 -6 -3 2 0 1 3 5 10 11 12 13 13 14 13 15 16 16 16 15 16 15 12 12 11 11 9 8 8 4 2 1 2 6 -3 -5 -9 -11 -11 -7 -11 -11 -12 -13 -14 -13 -14 -15 -15 -15 -14 -14 -14 -14 -14 -13 -13 -14 -15 -15 -15 -15 -15 -14 -13 -11
18 5 9 15 12 19 13 16 4 8 15 19 16 8 14 12 2 -1 -2 -1 0 -2 -5 -9 -6 -3 6 8 12 11 12 13 13 10 14 15 16 16 16 15 14 12 9 10 7 5 6 5 4 2 -0 -2 -3 -6 -9 -10 -11 -11 -11 -11 -9 -9 -13 -14 -15 -14 -15 -15 -15 -15 -15 -15 -15 -13 -14 -14 -15 -16 -16 -16 -15 -15 -13 -13 -11 -13
13 11 2 7 17 13 7 11 9 9 3 9 8 5 10 4 12 5 3 3 4 -2 -8 -8 -6 -4 9 12 11 11 11 13 13 13 14 15 16 17 16 11 10 9 8 7 4 2 3 2 2 2 -1 -5 -8 -2 -9 -11 -11 -11 -12 -12 -12 -13 -14 -14 -14 -15 -15 -14 -15 -14 -15 -15 -15 -15 -15 -15 -16 -15 -16 -15 -12 -14 -14 -13 -13 -12
10 9 1 9 10 8 8 14 11 10 8 9 10 4 7 2 -1 -5 -7 2 1 -7 -7 -3 -2 -1 9 12 11 11 11 11 11 11 10 10 11 11 8 9 9 8 7 3 3 2 -0 0 -2 -2 -6 -12 -13 -12 -11 -10 -11 -12 -12 -11 -13 -13 -14 -15 -15 -15 -16 -15 -15 -16 -15 -15 -15 -15 -15 -15 -16 -14 -15 -15 -15 -15 -14 -14 -13 -13
16 14 9 6 10 11 12 12 16 13 12 11 11 7 9 6 1 -3 -9 -4 -2 -1 2 0 -6 -4 10 11 11 10 9 9 9 9 9 8 8 7 8 10 8 7 3 3 2 -0 -2 -3 -5 -5 -8 -13 -13 -12 -12 -12 -12 -13 -13 -13 -13 -14 -15 -15 -15 -15 -15 -16 -16 -16 -15 -15 -15 -15 -15 -16 -16 -15 -15 -15 -15 -13 -14 -14 -13 -13
27 6 -1 5 12 14 15 17 13 14 16 12 12 12 9 2 1 0 -2 -0 1 -1 -3 -8 -11 -3 8 13 10 8 9 9 9 9 8 7 7 6 5 5 3 2 3 2 -1 -3 -3 -5 -7 -9 -11 -13 -13 -13 -12 -13 -14 -14 -13 -13 -14 -14 -14 -15 -16 -15 -16 -16 -16 -16 -16 -16 -16 -16 -16 -16 -15 -15 -15 -15 -14 -12 -13 -13 -14 -14
4 4 1 -2 -2 2 5 10 11 13 16 8 9 12 11 9 8 6 6 5 1 -3 -5 -9 -10 -6 5 13 10 8 9 8 8 8 8 7 6 5 4 4 2 1 -1 -2 -3 -4 -4 -6 -8 -10 -12 -14 -14 -13 -13 -14 -14 -14 -13 -13 -14 -14 -15 -16 -15 -16 -16 -16 -16 -16 -16 -16 -16 -17 -16 -16 -15 -15 -15 -14 -14 -14 -13 -14 -14 -14
15 12 -1 -13 -13 -15 -15 -11 -4 2 5 7 13 13 12 5 6 -0 -0 3 0 1 -5 -10 -7 -3 1 11 9 8 7 7 7 7 8 7 5 5 5 4 -2 -2 -3 -3 -4 -5 -5 -5 -7 -11 -14 -14 -13 -13 -13 -14 -13 -13 -13 -14 -14 -15 -16 -16 -16 -16 -16 -16 -16 -16 -16 -16 -17 -16 -16 -15 -14 -14 -14 -14 -14 -14 -14 -14 -15 -15
14 14 2 1 -5 -11 -2 -1 7 15 8 -1 3 9 7 9 7 2 -1 2 1 -5 -6 -3 -3 -3 -1 -2 1 1 6 7 6 5 5 5 5 6 5 0 -4 -4 -2 -3 -3 -4 -5 -7 -9 -13 -15 -15 -13 -13 -14 -14 -13 -13 -13 -14 -14 -16 -15 -16 -16 -16 -16 -16 -16 -16 -16 -16 -16 -15 -15 -15 -15 -14 -14 -14 -15 -15 -15 -14 -14 -15
10 8 8 6 4 2 -0 -1 2 14 6 5 2 3 7 7 6 3 -2 -6 0 -5 -4 1 1 -4 -2 1 3 4 6 6 6 5 5 5 4 3 2 2 10 -6 -3 -4 -4 -5 -6 -8 -10 -14 -15 -12 -13 -13 -13 -13 -13 -13 -13 -14 -15 -15 -15 -16 -15 -16 -16 -16 -16 -16 -16 -15 -15 -15 -15 -14 -14 -14 -14 -15 -15 -15 -15 -14 -15 -15
-0 0 6 -1 -2 2 3 3 4 6 6 6 5 5 5 7 8 4 1 3 3 -5 -5 -6 -3 0 2 3 4 5 6 5 6 6 6 6 4 3 -2 -4 -6 -7 -5 -5 -6 -6 -7 -9 -11 -14 -14 -14 -13 -13 -13 -13 -13 -13 -14 -15 -16 -16 -16 -14 -15 -15 -16 -16 -15 -15 -15 -15 -15 -14 -14 -14 -14 -15 -15 -15 -15 -15 -15 -15 -16 -15
8 6 8 5 5 8 2 4 8 7 6 5 5 7 7 8 8 8 8 7 6 3 3 3 5 5 5 6 5 6 7 6 6 6 6 5 4 4 0 -2 -4 -6 -5 -7 -7 -7 -8 -10 -12 -14 -13 -14 -14 -13 -13 -13 -13 -14 -15 -16 -16 -16 -15 -15 -15 -16 -16 -15 -15 -14 -14 -15 -14 -14 -15 -15 -15 -15 -15 -15 -15 -15 -15 -16 -16 -17
4 2 14 6 -1 1 2 10 8 6 4 3 4 6 7 8 8 9 8 9 10 10 9 9 8 7 7 6 6 7 7 7 6 4 3 3 3 3 3 1 -1 -4 -6 -7 -8 -8 -9 -11 -14 -15 -15 -14 -14 -13 -12 -12 -13 -14 -15 -16 -16 -16 -15 -15 -15 -15 -15 -14 -14 -14 -14 -15 -15 -15 -15 -15 -15 -15 -14 -15 -15 -15 -15 -15 -15 -15
-5 -2 4 1 -5 -2 2 7 7 6 5 2 3 3 4 7 5 7 5 7 6 5 6 2 0 1 0 6 7 6 5 4 3 3 3 2 3 4 3 2 0 -4 -7 -9 -8 -10 -10 -12 -14 -14 -14 -14 -14 -13 -12 -12 -14 -15 -16 -16 -16 -16 -15 -15 -15 -14 -14 -14 -14 -15 -15 -15 -15 -15 -14 -14 -14 -15 -14 -14 -15 -15 -15 -15 -15 -14
1 1 2 -1 -5 -4 0 -4 -4 3 1 -1 2 3 4 6 7 7 6 8 9 6 0 -0 1 -2 -2 6 3 3 4 3 3 3 3 3 3 3 3 3 1 -6 -9 -9 -6 -7 -12 -13 -14 -15 -14 -14 -13 -12 -13 -14 -15 -16 -16 -15 -15 -14 -14 -14 -14 -14 -14 -14 -15 -15 -15 -15 -14 -14 -14 -14 -14 -14 -14 -14 -15 -15 -15 -15 -14 -14
7 4 2 0 -8 -4 1 1 1 -4 -8 -3 5 10 7 5 7 6 6 5 5 3 2 -0 -2 -1 1 2 3 2 2 2 3 3 4 3 3 3 3 -3 -7 -8 -9 -10 -11 -12 -12 -11 -13 -12 -14 -13 -12 -11 -13 -12 -15 -15 -14 -14 -14 -14 -14 -14 -14 -15 -15 -15 -15 -15 -14 -14 -14 -14 -14 -14 -14 -14 -14 -14 -14 -14 -14 -14 -14 -15
3 4 3 -3 -4 -1 -0 -1 -5 -14 -4 3 7 8 8 7 6 6 5 5 4 4 4 4 4 3 3 4 3 3 3 3 4 3 3 -2 -2 -3 -5 -5 -6 -5 -7 -10 -11 -11 -12 -13 -14 -13 -13 -12 -10 -12 -16 -15 -16 -15 -15 -14 -14 -14 -14 -14 -15 -15 -15 -15 -14 -14 -14 -13 -13 -14 -14 -14 -14 -14 -14 -14 -14 -15 -14 -14 -14 -15
-3 -2 -2 0 -1 -1 -4 -7 -16 -9 -1 9 7 8 10 8 7 3 3 4 5 5 4 3 3 4 4 3 3 3 3 4 4 4 -0 -5 -4 -5 -6 -6 -6 -6 -8 -10 -11 -11 -13 -14 -14 -13 -13 -6 -13 -13 -15 -16 -16 -15 -14 -13 -14 -14 -15 -15 -15 -15 -14 -14 -13 -13 -13 -13 -14 -14 -14 -14 -14 -14 -14 -15 -15 -15 -15 -14 -15 -15
-3 -2 -1 -2 -2 -9 -6 -8 -4 -4 -5 -1 5 8 8 4 5 -0 -5 -2 1 3 4 3 3 2 3 3 3 4 4 4 4 4 -4 -4 -5 -5 -5 -5 -6 -6 -8 -11 -11 -13 -14 -14 -13 -12 -8 -14 -14 -15 -15 -16 -15 -14 -14 -14 -14 -14 -15 -15 -14 -14 -14 -13 -13 -13 -13 -14 -14 -14 -14 -14 -14 -15 -15 -15 -15 -15 -15 -15 -15 -16
-3 -7 -1 -3 -6 -0 -6 -3 -4 -9 -14 -4 3 7 4 4 3 3 -0 0 -2 1 1 1 1 3 3 3 3 4 4 4 2 3 -3 -4 -4 -5 -5 -5 -6 -8 -10 -11 -13 -14 -14 -13 -12 -8 -13 -14 -14 -15 -16 -14 -14 -15 -15 -15 -14 -14 -15 -14 -14 -14 -13 -13 -13 -14 -14 -13 -14 -14 -14 -15 -15 -16 -15 -15 -15 -16 -15 -16 -16 -16
6 -5 -3 -5 -3 -2 -6 -9 -11 -13 -7 -4 4 6 5 3 3 3 -1 -2 3 4 4 4 3 3 3 3 3 4 2 -0 2 3 -1 -4 -4 -5 -6 -9 -13 -13 -10 -11 -13 -14 -14 -14 -13 -10 -10 -15 -16 -16 -15 -15 -15 -15 -15 -14 -14 -14 -14 -14 -14 -13 -13 -13 -14 -14 -13 -13 -14 -14 -15 -16 -16 -17 -17 -16 -16 -16 -15 -16 -16 -17
3 2 0 -0 -4 -2 -6 -7 -6 -8 -4 -2 6 7 7 5 5 2 -6 -5 3 4 4 4 3 3 4 4 4 3 2 1 2 4 -3 -4 -4 -5 -9 -12 -14 -12 -11 -13 -13 -14 -14 -9 -10 -11 -15 -16 -16 -16 -15 -15 -15 -14 -14 -14 -14 -15 -14 -14 -13 -13 -13 -14 -14 -13 -13 -14 -14 -15 -16 -16 -17 -17 -17 -16 -16 -17 -16 -17 -17 -17
-1 1 2 1 -2 1 5 -3 -6 -0 5 7 8 6 5 5 0 -8 -8 -3 5 5 4 4 4 4 4 4 5 4 5 5 5 4 -4 -5 -5 -7 -13 -14 -14 -13 -12 -13 -12 -1 -12 -14 -14 -14 -15 -15 -16 -15 -14 -14 -15 -15 -14 -14 -15 -14 -14 -13 -13 -14 -14 -14 -14 -14 -14 -15 -16 -16 -17 -17 -17 -17 -17 -17 -17 -17 -18 -18 -17 -17
-1 -2 1 -5 -5 -2 -1 -3 -2 -1 2 8 6 6 6 -2 -10 -7 2 6 5 5 5 4 4 4 4 4 5 5 5 6 7 4 -1 -3 -4 -5 -10 -14 -14 -12 -11 -7 -4 -8 -15 -15 -15 -15 -15 -15 -15 -13 -14 -15 -15 -14 -16 -15 -14 -14 -13 -13 -13 -15 -16 -15 -15 -15 -15 -16 -16 -17 -17 -18 -18 -19 -19 -18 -18 -18 -18 -18 -18 -19
0 -6 -3 -4 -1 -3 -6 -10 -6 -9 -2 6 5 5 6 -3 1 1 3 4 4 3 3 3 4 4 4 4 5 5 5 4 4 3 2 -2 -5 -7 -13 -15 -14 -12 -12 -13 -12 -8 -13 -16 -15 -15 -15 -15 -14 -14 -15 -15 -16 -16 -15 -14 -14 -13 -13 -13 -14 -15 -15 -15 -15 -16 -17 -17 -18 -18 -19 -19 -19 -19 -20 -19 -19 -19 -19 -19 -20 -20
3 -6 -4 -1 1 -7 -7 -11 -8 -0 3 5 -1 -3 4 1 -0 4 1 0 4 4 3 4 4 5 5 4 4 4 4 4 3 2 -0 -2 -5 -10 -14 -15 -14 -13 -13 -13 -13 -14 -10 -16 -15 -15 -15 -14 -13 -14 -14 -15 -15 -16 -15 -14 -13 -13 -13 -15 -15 -16 -16 -16 -17 -17 -18 -18 -19 -19 -20 -20 -19 -20 -20 -20 -19 -19 -19 -19 -20 -20
3 3 5 -2 1 -2 -4 -0 -0 -0 6 5 1 -4 -3 2 4 3 3 2 2 3 4 5 5 6 5 5 4 4 4 4 3 2 0 -2 -4 -8 -12 -13 -13 -12 -13 -13 -15 -10 -11 -16 -15 -15 -14 -14 -14 -13 -14 -14 -15 -15 -14 -14 -13 -15 -15 -15 -17 -18 -18 -18 -19 -19 -19 -20 -20 -20 -21 -20 -20 -20 -19 -20 -20 -20 -20 -20 -20 -20
9 3 2 -2 5 5 4 3 4 2 2 5 6 3 1 -0 2 4 4 3 4 5 6 5 6 6 5 5 4 4 4 4 2 1 -1 -3 -6 -9 -10 -13 -13 -13 -13 -14 -15 -11 -13 -15 -14 -14 -14 -13 -13 -13 -12 -12 -14 -15 -14 -14 -15 -15 -16 -17 -19 -20 -20 -19 -19 -20 -21 -22 -21 -21 -21 -21 -20 -20 -19 -20 -20 -20 -20 -20 -20 -20
3 -0 -0 -1 4 -3 -1 -2 -3 -3 -3 -1 0 3 4 4 2 4 5 5 4 5 5 6 6 6 6 4 4 4 5 3 3 2 -0 -3 -6 -10 -12 -12 -12 -12 -13 -14 -14 -11 -14 -15 -15 -14 -14 -14 -13 -12 -12 -13 -13 -12 -13 -14 -14 -15 -17 -18 -19 -18 -19 -19 -20 -21 -22 -22 -21 -20 -20 -21 -20 -20 -20 -20 -20 -20 -20 -20 -21 -21
8 1 -0 -0 -0 -2 -2 -2 -2 -2 -2 -0 -1 -3 -3 -2 2 4 4 5 5 6 6 6 7 6 5 5 4 4 4 2 1 -0 -2 -4 -5 -8 -11 -12 -12 -12 -13 -13 -14 -12 -15 -15 -15 -15 -15 -12 -12 -12 -12 -12 -12 -13 -13 -15 -15 -18 -19 -19 -19 -19 -19 -20 -21 -20 -21 -22 -19 -19 -20 -21 -21 -21 -21 -21 -21 -21 -21 -21 -21 -20
5 4 2 1 -1 -1 -0 -0 -0 0 -0 -0 -0 -1 -1 -1 -0 4 6 5 5 6 6 6 6 6 5 5 4 3 2 2 1 -0 -2 -3 -6 -9 -11 -12 -12 -12 -12 -14 -14 -12 -14 -14 -14 -14 -14 -13 -12 -13 -13 -13 -13 -14 -13 -13 -17 -19 -19 -18 -18 -18 -20 -21 -21 -22 -20 -21 -21 -21 -21 -22 -22 -21 -21 -21 -21 -20 -20 -19 -18 -17
3 4 2 0 3 3 2 1 -0 -1 0 -2 -4 -2 -1 1 1 3 5 5 5 5 6 6 5 4 4 4 3 2 2 2 1 -1 -2 -4 -7 -10 -11 -11 -12 -12 -13 -13 -12 -13 -13 -13 -14 -14 -14 -12 -12 -13 -14 -14 -13 -14 -13 -16 -18 -21 -21 -19 -18 -20 -20 -21 -22 -22 -22 -22 -22 -22 -22 -22 -23 -22 -22 -18 -16 -16 -16 -16 -12 -11
1 2 2 3 2 1 1 1 2 1 -0 -2 -4 -5 -0 3 3 4 5 5 6 6 6 6 6 4 3 2 2 1 1 1 1 -2 -3 -6 -9 -10 -11 -11 -11 -12 -12 -12 -13 -14 -14 -14 -14 -14 -14 -12 -13 -14 -14 -14 -14 -15 -14 -15 -16 -21 -20 -23 -20 -20 -20 -20 -22 -21 -21 -22 -22 -22 -23 -23 -23 -23 -22 -22 -21 -4 -11 -12 -12 -11